[[[{"header":{"parameterUnit":"kt","parameterCategory":2,"dx":1,"dy":1,"la1":30.253999710083008,"la2":30.299108505249023,"lo1":-89.0895004272461,"lo2":-89.04439544677734,"nx":28,"ny":28,"refTime":"2022-09-24T21:00:00:Z","depth":0,"parameterNumber":1,"parameterNumberName":"U-component_of_WINDS"},"data":[0.7258,0.7281,0.7317,0.7361,0.7401,0.7437,0.7462,0.7498,0.7535,0.7584,0.7618,0.7658,0.7711,0.7762,0.7801,0.7818,0.7832,0.7815,0.7837,0.7882,0.7891,0.7899,0.7895,0.7817,0.7817,0.7784,0.7784,0.7784,0.7291,0.733,0.7363,0.742,0.7449,0.7488,0.7537,0.7559,0.759,0.7637,0.7673,0.7719,0.776,0.782,0.7866,0.7879,0.7899,0.7889,0.7887,0.7895,0.7945,0.794,0.7871,0.7871,0.7871,0.7871,0.7871,0.7871,0.7359,0.7371,0.7426,0.7463,0.7501,0.7539,0.7558,0.7605,0.7639,0.769,0.7727,0.7764,0.7818,0.7891,0.7925,0.7955,0.7973,0.7973,0.7972,0.7971,0.7964,0.8006,0.7965,0.7965,0.7966,0.7966,0.7966,0,0.7419,0.7448,0.7482,0.7527,0.7556,0.7594,0.7636,0.7649,0.7723,0.7747,0.7786,0.7815,0.7872,0.7913,0.7965,0.8,0.8042,0.8051,0.805,0.8031,0.8008,0.802,0.8099,0.8051,0.8052,0.8052,0.8053,0.8053,0.7489,0.7499,0.7574,0.7593,0.7624,0.7655,0.768,0.7745,0.7769,0.783,0.7838,0.7881,0.7917,0.7974,0.803,0.8073,0.8093,0.8071,0.8099,0.8082,0.8091,0.8089,0.8091,0.8063,0.8061,0.806,0.806,0,0.7525,0.7583,0.761,0.7683,0.7702,0.771,0.7773,0.7788,0.7833,0.786,0.7871,0.794,0.7977,0.8037,0.8092,0.8122,0.8137,0.8157,0.8119,0.8126,0.8111,0.8111,0.8054,0.805,0.8133,0.8132,0.8131,0,0.7606,0.7617,0.7703,0.7716,0.7731,0.7795,0.7809,0.7848,0.7895,0.7917,0.7975,0.7994,0.8068,0.8097,0.8141,0.8164,0.8175,0.8198,0.821,0.8192,0.8189,0.8204,0.8207,0.8236,0.8236,0.8236,0.8237,0,0.7655,0.7714,0.7735,0.7758,0.7836,0.7845,0.7878,0.7931,0.7955,0.7997,0.8013,0.8057,0.808,0.8114,0.8169,0.8186,0.82,0.8235,0.8224,0.8222,0.8221,0.822,0.8157,0.8237,0.8237,0.8237,0.8237,0,0.7728,0.7768,0.779,0.7857,0.787,0.7884,0.7931,0.7957,0.8008,0.8037,0.807,0.8114,0.814,0.817,0.8206,0.8213,0.8233,0.8259,0.8259,0.8263,0.8295,0.8249,0.8185,0.818,0.827,0.827,0.827,0,0.7767,0.7805,0.786,0.788,0.7905,0.7967,0.7985,0.8028,0.8068,0.8096,0.814,0.8171,0.8206,0.8224,0.8235,0.8281,0.8273,0.8284,0.8324,0.8324,0.8306,0.8249,0.8223,0.8193,0.8275,0.8274,0.8274,0,0.7804,0.7898,0.7898,0.7926,0.7993,0.8014,0.8034,0.8079,0.8095,0.8137,0.8155,0.8201,0.823,0.8258,0.8299,0.8306,0.828,0.8336,0.8338,0.8323,0.8282,0.8258,0.8252,0.8306,0.8306,0.8305,0.8277,0,0.7901,0.7927,0.7929,0.7988,0.8014,0.803,0.8091,0.8111,0.8147,0.8188,0.8216,0.8266,0.8311,0.8322,0.8357,0.8355,0.8364,0.8394,0.8426,0.8388,0.838,0.8377,0.8433,0.8434,0.8435,0.8436,0,0,0.7923,0.7961,0.8019,0.804,0.8065,0.8128,0.8139,0.8172,0.8234,0.8251,0.827,0.834,0.838,0.8408,0.8401,0.8419,0.8424,0.8434,0.8406,0.8402,0.8399,0.8389,0.8385,0.8438,0.8438,0.8439,0.8439,0,0.797,0.8009,0.8019,0.8055,0.8109,0.8152,0.8154,0.8219,0.8246,0.8273,0.8324,0.8349,0.8402,0.8438,0.8463,0.8434,0.847,0.8443,0.8406,0.8415,0.841,0.8405,0.8395,0.839,0.8442,0.8442,0.8442,0,0.8016,0.8064,0.8075,0.8135,0.8171,0.8196,0.8245,0.8269,0.8288,0.8354,0.838,0.8416,0.8469,0.8487,0.8497,0.8514,0.8508,0.8521,0.8515,0.8517,0.8528,0.8522,0.8516,0.8589,0.859,0.859,0,0,0.8048,0.8073,0.8143,0.815,0.8169,0.8232,0.825,0.8288,0.8333,0.8351,0.8397,0.844,0.8472,0.8492,0.8525,0.8536,0.8552,0.8536,0.8529,0.8524,0.8522,0.8531,0.8525,0.8591,0.8591,0.8591,0,0,0.8064,0.8145,0.8173,0.8188,0.823,0.8299,0.8301,0.8337,0.8373,0.8378,0.8442,0.8456,0.8474,0.8507,0.8513,0.8538,0.8569,0.8568,0.8515,0.8507,0.85,0.8491,0.857,0,0,0,0,0,0.8142,0.8136,0.816,0.8172,0.8247,0.8286,0.8296,0.8349,0.837,0.837,0.8415,0.8453,0.8524,0.8531,0.8542,0.8533,0.8603,0.8601,0.8599,0.8533,0.8524,0.8517,0,0,0,0,0,0,0.8147,0.8161,0.816,0.8229,0.8246,0.8287,0.8334,0.8348,0.8371,0.8378,0.8443,0.8455,0.85,0.8529,0.8538,0.8529,0.8567,0.8603,0.8601,0.8599,0.853,0.8523,0.8516,0,0,0,0,0,0.8151,0.8163,0.8269,0.8229,0.8244,0.8313,0.8334,0.8347,0.8365,0.8434,0.8447,0.8403,0.8499,0.851,0.8535,0.8524,0.8561,0.8564,0.8601,0.86,0.8598,0.8526,0,0,0,0,0,0,0.8155,0.8174,0.8274,0.828,0.8235,0.8312,0.8326,0.8345,0.8421,0.8434,0.8397,0.8402,0.8497,0.8506,0.8514,0.8519,0.8557,0.856,0.8562,0.86,0.8599,0.8598,0,0,0,0,0,0,0.8169,0.818,0.8277,0.8282,0.829,0.831,0.8323,0.8351,0.8421,0.838,0.8387,0.8398,0.8485,0.8504,0.851,0.8553,0.8553,0.8556,0.8558,0.8559,0.8599,0.8598,0,0,0,0,0,0,0.8174,0.8184,0.8281,0.8286,0.8293,0.8372,0.8337,0.8411,0.8425,0.8376,0.8428,0.8429,0.8481,0.8489,0.8507,0.8547,0.8551,0.8553,0.8555,0.8557,0.8558,0,0,0,0,0,0,0,0.8179,0.8104,0.8234,0.829,0.8296,0.8342,0.8343,0.8345,0.8425,0.8426,0.8427,0.8428,0.8536,0.8539,0.8543,0.8541,0,0,0.8553,0.8554,0,0,0,0,0,0,0,0,0.8101,0.8103,0.8235,0.8236,0.8237,0.8342,0.8343,0.8345,0.8425,0.8426,0.8427,0.8428,0.8537,0.8539,0.8542,0,0,0,0,0,0,0,0,0,0,0,0,0,0,0,0.8235,0.8236,0,0.8342,0.8343,0.8345,0.8425,0.8426,0.8427,0.8428,0.8538,0.854,0.8542,0,0,0,0,0,0,0,0,0,0,0,0,0,0,0,0,0,0,0,0,0,0,0,0,0,0,0,0,0,0,0,0,0,0,0,0,0,0,0,0,0,0,0,0,0,0,0,0,0,0,0,0,0,0,0,0,0,0,0,0,0,0,0,0,0,0,0,0,0]}],[{"header":{"parameterUnit":"kt","parameterCategory":2,"dx":1,"dy":1,"la1":30.253999710083008,"la2":30.299108505249023,"lo1":-89.0895004272461,"lo2":-89.04439544677734,"nx":28,"ny":28,"refTime":"2022-09-24T21:00:00:Z","depth":0,"parameterNumber":2,"parameterNumberName":"V-component_of_WINDS"},"data":[-8.8035,-8.8025,-8.8022,-8.8008,-8.8003,-8.7992,-8.7987,-8.798,-8.7973,-8.7959,-8.795,-8.7944,-8.7934,-8.7921,-8.791,-8.7907,-8.7903,-8.7903,-8.7899,-8.7905,-8.7905,-8.7906,-8.7908,-8.7902,-8.7902,-8.7893,-8.7893,-8.7893,-8.8042,-8.8036,-8.8028,-8.8018,-8.801,-8.8009,-8.7999,-8.7993,-8.7983,-8.7974,-8.7965,-8.7952,-8.794,-8.7929,-8.7917,-8.7911,-8.7908,-8.7908,-8.7908,-8.7906,-8.7912,-8.7915,-8.791,-8.791,-8.791,-8.791,-8.791,-8.791,-8.8052,-8.8046,-8.8038,-8.8028,-8.8022,-8.8014,-8.8007,-8.8001,-8.7991,-8.7979,-8.7975,-8.7963,-8.7952,-8.7934,-8.7926,-8.7916,-8.7915,-8.7912,-8.7912,-8.7911,-8.7911,-8.7924,-8.7913,-8.7913,-8.7913,-8.7913,-8.7913,0,-8.8058,-8.8056,-8.8047,-8.8038,-8.8031,-8.8022,-8.8014,-8.8009,-8.8,-8.7993,-8.7981,-8.7973,-8.7958,-8.7945,-8.7932,-8.7924,-8.7919,-8.7918,-8.7916,-8.7918,-8.7922,-8.7919,-8.793,-8.7918,-8.7918,-8.7918,-8.7918,-8.7918,-8.8068,-8.8061,-8.805,-8.8044,-8.8039,-8.803,-8.8023,-8.8016,-8.8009,-8.7996,-8.799,-8.7978,-8.7968,-8.7949,-8.7938,-8.7925,-8.7923,-8.7919,-8.792,-8.7923,-8.7922,-8.7922,-8.7922,-8.7918,-8.7918,-8.7918,-8.7918,0,-8.8074,-8.8067,-8.8055,-8.8044,-8.8041,-8.8034,-8.8023,-8.8016,-8.801,-8.7998,-8.7995,-8.7984,-8.7972,-8.7962,-8.7945,-8.794,-8.7927,-8.7925,-8.7931,-8.793,-8.7925,-8.7926,-8.7912,-8.7909,-8.7917,-8.7917,-8.7917,0,-8.8079,-8.807,-8.806,-8.8054,-8.8043,-8.8036,-8.8026,-8.8019,-8.801,-8.8001,-8.7995,-8.7986,-8.7975,-8.7964,-8.7957,-8.7944,-8.7941,-8.7936,-8.7934,-8.7936,-8.7937,-8.7931,-8.7931,-8.793,-8.793,-8.793,-8.793,0,-8.8088,-8.8072,-8.8062,-8.8057,-8.8043,-8.8038,-8.8031,-8.8021,-8.8014,-8.8003,-8.7998,-8.7986,-8.7978,-8.7968,-8.7959,-8.7961,-8.7943,-8.7943,-8.7938,-8.7938,-8.7933,-8.7934,-8.7925,-8.793,-8.793,-8.793,-8.793,0,-8.8091,-8.8082,-8.8067,-8.8056,-8.8052,-8.8044,-8.8032,-8.8023,-8.8012,-8.8007,-8.7998,-8.7992,-8.7981,-8.7982,-8.7965,-8.797,-8.7963,-8.7957,-8.7956,-8.7954,-8.7955,-8.7951,-8.7944,-8.7943,-8.7953,-8.7953,-8.7953,0,-8.8103,-8.8086,-8.808,-8.8066,-8.8057,-8.8051,-8.8042,-8.8033,-8.8026,-8.8016,-8.8007,-8.7996,-8.7994,-8.7989,-8.7982,-8.7972,-8.7966,-8.7973,-8.7957,-8.7956,-8.796,-8.7954,-8.7955,-8.7947,-8.7955,-8.7955,-8.7955,0,-8.8112,-8.8096,-8.8093,-8.8087,-8.8074,-8.8066,-8.8056,-8.8043,-8.8037,-8.8027,-8.8017,-8.8,-8.7999,-8.799,-8.7983,-8.7976,-8.797,-8.7975,-8.7974,-8.7974,-8.7956,-8.7957,-8.7956,-8.7967,-8.7966,-8.7966,-8.7957,0,-8.8117,-8.8107,-8.8101,-8.8088,-8.808,-8.8071,-8.8061,-8.8054,-8.805,-8.8042,-8.8028,-8.8016,-8.8001,-8.7997,-8.7991,-8.7979,-8.7979,-8.7977,-8.7976,-8.7972,-8.7969,-8.7968,-8.7982,-8.7982,-8.7982,-8.7982,0,0,-8.813,-8.8116,-8.8109,-8.8099,-8.8092,-8.8086,-8.8077,-8.8069,-8.8053,-8.8047,-8.8047,-8.8022,-8.8011,-8.7995,-8.7993,-8.7987,-8.7983,-8.7984,-8.7974,-8.7974,-8.7973,-8.7969,-8.7968,-8.7982,-8.7982,-8.7982,-8.7982,0,-8.813,-8.8122,-8.8114,-8.8106,-8.8093,-8.8086,-8.8084,-8.807,-8.8065,-8.8051,-8.8045,-8.8034,-8.8013,-8.8004,-8.7996,-8.7987,-8.7981,-8.7983,-8.7982,-8.7974,-8.7973,-8.7973,-8.7969,-8.7968,-8.7982,-8.7982,-8.7982,0,-8.8136,-8.8127,-8.8122,-8.8106,-8.8098,-8.8088,-8.8086,-8.8075,-8.8068,-8.8059,-8.8045,-8.8036,-8.8022,-8.8008,-8.8001,-8.8,-8.7981,-8.7984,-8.7985,-8.7983,-8.7975,-8.7974,-8.7973,-8.7983,-8.7983,-8.7983,0,0,-8.8137,-8.8128,-8.8115,-8.8105,-8.8101,-8.809,-8.8083,-8.8078,-8.8066,-8.8061,-8.805,-8.8038,-8.8025,-8.8017,-8.8005,-8.7991,-8.7986,-8.7985,-8.7985,-8.7985,-8.7984,-8.7975,-8.7975,-8.7983,-8.7983,-8.7983,0,0,-8.8137,-8.8122,-8.812,-8.8107,-8.8097,-8.8083,-8.8076,-8.8073,-8.8061,-8.8061,-8.8049,-8.8045,-8.8031,-8.8023,-8.8027,-8.8004,-8.8004,-8.8003,-8.801,-8.801,-8.801,-8.8012,-8.8021,0,0,0,0,0,-8.8132,-8.8124,-8.8122,-8.8119,-8.8098,-8.8084,-8.8081,-8.8072,-8.8073,-8.8068,-8.8058,-8.8053,-8.8023,-8.8026,-8.8022,-8.8017,-8.7986,-8.7986,-8.7985,-8.7992,-8.7992,-8.7992,0,0,0,0,0,0,-8.8131,-8.8126,-8.8122,-8.8108,-8.8103,-8.8084,-8.8083,-8.808,-8.8073,-8.8073,-8.8055,-8.8053,-8.8044,-8.8028,-8.8024,-8.8019,-8.8022,-8.7986,-8.7985,-8.7985,-8.7992,-8.7992,-8.7992,0,0,0,0,0,-8.8129,-8.8126,-8.8095,-8.8108,-8.8104,-8.809,-8.8083,-8.8081,-8.8075,-8.8059,-8.8057,-8.8069,-8.8044,-8.804,-8.8026,-8.8021,-8.8025,-8.8024,-8.7986,-8.7985,-8.7985,-8.7992,0,0,0,0,0,0,-8.8128,-8.8123,-8.8094,-8.8093,-8.811,-8.8091,-8.8088,-8.8082,-8.8062,-8.8059,-8.8073,-8.8073,-8.8044,-8.8041,-8.8038,-8.8023,-8.8027,-8.8026,-8.8025,-8.7985,-8.7985,-8.7985,0,0,0,0,0,0,-8.8125,-8.8122,-8.8093,-8.8097,-8.8096,-8.8092,-8.8089,-8.8075,-8.8062,-8.8076,-8.8076,-8.8073,-8.8048,-8.8042,-8.8039,-8.8017,-8.8028,-8.8027,-8.8026,-8.8026,-8.7985,-8.7985,0,0,0,0,0,0,-8.8124,-8.8121,-8.8097,-8.8096,-8.8095,-8.8076,-8.8079,-8.8058,-8.8067,-8.8077,-8.8067,-8.8068,-8.8048,-8.8046,-8.804,-8.8019,-8.8018,-8.8028,-8.8028,-8.8027,-8.8026,0,0,0,0,0,0,0,-8.8122,-8.8143,-8.8104,-8.8096,-8.8095,-8.8077,-8.8077,-8.8076,-8.8067,-8.8067,-8.8067,-8.8067,-8.8036,-8.8034,-8.8033,-8.8021,0,0,-8.8029,-8.8028,0,0,0,0,0,0,0,0,-8.8143,-8.8143,-8.8104,-8.8104,-8.8103,-8.8077,-8.8077,-8.8077,-8.8067,-8.8067,-8.8067,-8.8067,-8.8035,-8.8034,-8.8033,0,0,0,0,0,0,0,0,0,0,0,0,0,0,0,-8.8104,-8.8104,0,-8.8077,-8.8077,-8.8077,-8.8067,-8.8067,-8.8067,-8.8067,-8.8035,-8.8034,-8.8033,0,0,0,0,0,0,0,0,0,0,0,0,0,0,0,0,0,0,0,0,0,0,0,0,0,0,0,0,0,0,0,0,0,0,0,0,0,0,0,0,0,0,0,0,0,0,0,0,0,0,0,0,0,0,0,0,0,0,0,0,0,0,0,0,0,0,0,0,0]}]]]